Location: P�rn�nmaa
(61.1833°N, 23.0000°E)
Time: 19:01:07
(UTC+00:00)

Cosmos 304 Rocket - Pass Details

Date: 08 December 2019
Orbit: 679 x 688 km, 74.0° (Epoch: 17 January)

Event Time Altitude Azimuth Distance (km) Brightness Sun altitude
Rises 14:28:14 0° 325° (NW) 3,059 7.1 -7.5°
Reaches altitude 10° 14:30:33 10° 326° (NW) 2,141 6.3 -7.7°
Maximum altitude 14:35:23 88° 55° (NE) 694 3.8 -8.2°
Drops below altitude 10° 14:40:12 10° 147° (SSE) 2,134 6.3 -8.7°
Sets 14:42:30 0° 147° (SSE) 3,048 7.1 -8.9°
